This is the latest recevied weather packets stored in our database for station/object K7ZQU-7. If no packets are shown the sender has not sent any weather packets the latest 10 day(s).
| Time | Temp. | Humidity | Pressure | Rain* | Wind** | Luminosity | Snow |
|---|---|---|---|---|---|---|---|
| 1777436456 | 2.78° C | 86% | 1018.5 hPa | 0 mm | 1.34 m/s, 309° | - | - |
| 1777436157 | 3.33° C | 85% | 1018.6 hPa | 0 mm | 0.89 m/s, 304° | - | - |
| 1777435557 | 3.33° C | 84% | 1018.3 hPa | 0 mm | 1.79 m/s, 269° | - | - |
| 1777435258 | 3.33° C | 84% | 1018.3 hPa | 0 mm | 1.34 m/s, 297° | - | - |
| 1777434660 | 3.89° C | 83% | 1018.3 hPa | 0 mm | 1.79 m/s, 329° | - | - |
| 1777434358 | 3.89° C | 83% | 1018.4 hPa | 0 mm | 2.24 m/s, 298° | - | - |
| 1777434059 | 3.89° C | 82% | 1018.2 hPa | 0 mm | 1.79 m/s, 255° | - | - |
| 1777433760 | 3.89° C | 82% | 1018.4 hPa | 0 mm | 1.79 m/s, 11° | - | - |
| 1777433461 | 4.44° C | 82% | 1018.2 hPa | 0 mm | 2.24 m/s, 288° | - | - |
| 1777432860 | 4.44° C | 81% | 1018.2 hPa | 0 mm | 1.79 m/s, 319° | - | - |
| 1777432561 | 4.44° C | 80% | 1018.3 hPa | 0 mm | 2.68 m/s, 302° | - | - |
| 1777432262 | 5° C | 80% | 1018.3 hPa | 0 mm | 1.79 m/s, 301° | - | - |
| 1777431963 | 5° C | 79% | 1018.4 hPa | 0 mm | 1.34 m/s, 269° | - | - |
| 1777431064 | 5.56° C | 78% | 1018.2 hPa | 0 mm | 1.34 m/s, 304° | - | - |
| 1777430765 | 5.56° C | 77% | 1018.2 hPa | 0 mm | 1.79 m/s, 318° | - | - |
| 1777430466 | 5.56° C | 76% | 1018.3 hPa | 0 mm | 3.13 m/s, 302° | - | - |
| 1777430167 | 5.56° C | 76% | 1018.3 hPa | 0 mm | 1.79 m/s, 311° | - | - |
| 1777428968 | 6.11° C | 75% | 1018.3 hPa | 0 mm | 1.34 m/s, 307° | - | - |
| 1777428669 | 6.67° C | 73% | 1018.3 hPa | 0 mm | 3.13 m/s, 318° | - | - |
| 1777427770 | 7.22° C | 71% | 1018.2 hPa | 0 mm | 4.02 m/s, 316° | - | - |
| 1777427471 | 7.78° C | 70% | 1018.2 hPa | 0 mm | 1.79 m/s, 332° | - | - |
| 1777427172 | 7.78° C | 68% | 1018.2 hPa | 0 mm | 2.68 m/s, 309° | - | - |
| 1777426571 | 8.33° C | 67% | 1018.3 hPa | 0 mm | 3.13 m/s, 297° | - | - |
| 1777426272 | 8.33° C | 66% | 1018.2 hPa | 0 mm | 3.58 m/s, 307° | - | - |
| 1777425372 | 8.33° C | 61% | 1018.3 hPa | 0 mm | 2.68 m/s, 293° | - | - |
* Rain latest hour (hover to see other rain measurements)
** Current wind speed in m/s (hover to see current wind gust speed)